Muscle Shoals, AL

2:35 AM CDT on April 20, 2018 (GMT -0500)
Northwest Alabama Regional

Weather History for KMSL - June, 2013

Change the Weather History Date:

Sunday, June 30, 2013

  Actual Average Record
Temperature  
Mean Temperature 76 °F 80 °F  
Max Temperature 88 °F 90 °F 107 °F (2012)
Min Temperature 63 °F 69 °F 49 °F (1923)
Degree Days  
Heating Degree Days 0 0  
Month to date heating degree days 0 0  
Since 1 June heating degree days 0 1  
Since 1 July heating degree days 2954 3104  
Cooling Degree Days 11 15  
Month to date cooling degree days 406 362  
Year to date cooling degree days 646 606  
Since 1 June cooling degree days 406 362  
Growing Degree Days 26 (Base 50)    
Moisture  
Dew Point 62 °F    
Average Humidity 63    
Maximum Humidity 87    
Minimum Humidity 39    
Precipitation  
Precipitation 0.00 in 0.15 in 1.46 in (1966)
Month to date precipitation 4.33 4.76  
Year to date precipitation 29.24 28.26  
Snow  
Snow 0.00 in - - ()
Month to date snowfall 0.0  
Since 1 June snowfall 0.0  
Since 1 July snowfall T  
Snow Depth 0.00 in    
Sea Level Pressure  
Sea Level Pressure 29.75 in    
Wind  
Wind Speed 4 mph (NW)    
Max Wind Speed 14 mph    
Max Gust Speed 20 mph    
Visibility 10 miles    
Events      
T = Trace of Precipitation, MM = Missing Value Source: NWS Daily Summary

Daily Weather History Graph

Daily Weather History Graph

Search for Another Location

Airport or City:

Astronomy

Jun. 30, 2013 Rise Set
Actual Time 5:40 AM CDT 8:07 PM CDT
Civil Twilight 5:11 AM CDT 8:37 PM CDT
Nautical Twilight 4:34 AM CDT 9:13 PM CDT
Astronomical Twilight 3:54 AM CDT 9:53 PM CDT
Moon 12:27 AM CDT (6/30) 1:32 PM CDT (6/30)
Length of Visible Light 15h 26m
Length of Day
14h 27m
Last Quarter, 45% of the Moon is Illuminated
Jun 30
Last Quarter
Jul 8
New
Jul 15
First Quarter
Jul 22
Full
Jul 29
Last Quarter

Hourly Weather History & Observations

Time (CDT) Temp. Heat Index Dew Point Humidity Pressure Visibility Wind Dir Wind Speed Gust Speed Precip Events Conditions
12:53 AM 69.1 °F - 62.1 °F 78% 29.72 in 10.0 mi NNW 5.8 mph - N/A   Clear
1:53 AM 66.0 °F - 62.1 °F 87% 29.71 in 10.0 mi Calm Calm - N/A   Clear
2:53 AM 66.0 °F - 62.1 °F 87% 29.71 in 10.0 mi Calm Calm - N/A   Clear
3:53 AM 64.0 °F - 60.1 °F 87% 29.71 in 10.0 mi Calm Calm - N/A   Clear
4:53 AM 64.9 °F - 61.0 °F 87% 29.72 in 10.0 mi Calm Calm - N/A   Clear
5:53 AM 64.0 °F - 60.1 °F 87% 29.72 in 10.0 mi Calm Calm - N/A   Clear
6:53 AM 68.0 °F - 63.0 °F 84% 29.74 in 10.0 mi Calm Calm - N/A   Clear
7:53 AM 73.9 °F - 64.9 °F 73% 29.75 in 10.0 mi Calm Calm - N/A   Clear
8:53 AM 78.1 °F - 63.0 °F 60% 29.76 in 10.0 mi NW 5.8 mph - N/A   Clear
9:53 AM 81.0 °F 82.2 °F 63.0 °F 54% 29.75 in 10.0 mi NNW 3.5 mph - N/A   Clear
10:53 AM 82.9 °F 83.3 °F 61.0 °F 47% 29.75 in 10.0 mi WSW 6.9 mph - N/A   Clear
11:53 AM 84.9 °F 84.8 °F 60.1 °F 43% 29.75 in 10.0 mi Variable 5.8 mph - N/A   Clear
12:53 PM 86.0 °F 86.1 °F 61.0 °F 43% 29.74 in 10.0 mi NW 8.1 mph - N/A   Partly Cloudy
1:53 PM 86.0 °F 85.7 °F 60.1 °F 41% 29.73 in 10.0 mi NNW 6.9 mph - N/A   Clear
2:53 PM 87.1 °F 86.5 °F 59.0 °F 39% 29.73 in 10.0 mi NW 9.2 mph 18.4 mph N/A   Partly Cloudy
3:53 PM 86.0 °F 86.1 °F 61.0 °F 43% 29.74 in 10.0 mi WNW 11.5 mph - N/A   Scattered Clouds
4:53 PM 84.0 °F 84.4 °F 61.0 °F 46% 29.73 in 10.0 mi WNW 8.1 mph - N/A   Partly Cloudy
5:53 PM 84.0 °F 84.5 °F 62.1 °F 47% 29.74 in 10.0 mi NNW 10.4 mph - N/A   Mostly Cloudy
6:53 PM 80.1 °F 81.5 °F 63.0 °F 56% 29.75 in 10.0 mi North 4.6 mph - N/A   Scattered Clouds
7:53 PM 78.1 °F - 63.0 °F 60% 29.77 in 10.0 mi North 3.5 mph - N/A   Partly Cloudy
8:53 PM 77.0 °F - 63.0 °F 62% 29.78 in 10.0 mi NNW 6.9 mph - N/A   Overcast
9:53 PM 73.9 °F - 63.0 °F 68% 29.81 in 10.0 mi Calm Calm - N/A   Clear
10:53 PM 72.0 °F - 63.0 °F 73% 29.81 in 10.0 mi NNW 3.5 mph - N/A   Clear
11:53 PM 70.0 °F - 64.0 °F 81% 29.80 in 10.0 mi WNW 3.5 mph - N/A   Clear